{"data":{"norad_id":59657,"epoch":"2026-09-21T08:01:20.605728Z","epoch_age_seconds":96456,"freshness":"FRESH","line1":"1 59657U 24084D   26264.33426627 -.00001265  00000+0 -36445-4 0  9994","line2":"2 59657  43.0009  16.9709 0000752 262.5293  97.5474 15.27581807134294","mean_motion":15.27581807,"eccentricity":7.52e-5,"inclination_deg":43.0009,"raan_deg":16.9709,"arg_perigee_deg":262.5293,"mean_anomaly_deg":97.5474,"bstar":-3.6445e-5,"rev_number":13429,"period_min":94.266637204066,"perigee_km":482.52772444939,"apogee_km":483.55964602445,"semimajor_km":6861.1806852369,"source":"CELESTRAK","updated_at":"2026-09-22T09:00:49.024963Z"}}